Theta_e
295 295 295 295 294 294 293 292 292 291 290 290 289 289 288 287 286 286 285 286 285 285 284 284 283 283 283 282 282 282 282 282 282 282 281 281 281 281 280 280 280 280
295 295 295 294 293 292 292 291 291 290 289 288 288 287 286 286 285 285 284 284 284 284 284 283 282 282 281 281 281 281 281 281 281 282 281 281 281 281 280 280 280 280
295 294 293 292 291 290 290 290 290 289 288 287 287 286 285 285 284 284 284 283 283 283 282 282 281 281 281 280 281 281 281 281 281 281 281 281 281 280 280 280 279 279
293 292 292 291 291 290 290 289 288 288 287 286 285 285 284 285 284 283 283 283 282 282 282 281 281 280 280 281 281 281 281 281 281 281 280 280 281 280 279 279 279 279
291 291 291 290 289 289 288 287 286 286 285 284 284 284 283 283 283 282 282 281 281 281 281 280 280 280 280 281 281 280 281 281 281 280 280 279 280 279 279 279 278 278
290 290 289 289 288 288 286 286 285 284 284 283 283 283 283 282 282 281 281 280 280 280 279 279 279 279 280 280 280 280 280 280 280 280 279 279 279 279 279 279 278 277
289 289 288 287 286 286 285 284 284 283 283 283 283 282 282 281 281 280 280 280 279 279 279 279 278 278 279 279 279 279 279 279 279 279 278 279 279 279 279 279 278 277
288 287 287 286 285 285 284 283 283 282 282 282 282 282 281 281 280 280 280 279 279 279 278 278 278 278 279 279 278 278 279 279 279 279 279 278 278 278 278 278 277 277
287 286 286 285 284 283 282 282 282 282 282 281 281 281 281 280 280 279 279 279 278 278 278 277 277 277 278 278 278 278 278 279 279 279 278 277 277 277 277 277 277 277
286 285 285 284 283 282 281 281 281 281 282 281 280 280 280 280 280 279 279 278 277 277 277 277 277 277 277 278 278 278 278 278 278 278 278 278 277 277 277 277 276 276
285 284 283 283 282 281 281 281 281 281 281 280 280 280 280 279 279 279 278 278 277 276 276 276 276 276 277 277 278 278 279 278 278 278 278 277 277 277 277 276 276 275
284 283 282 281 281 281 280 280 280 280 280 280 279 279 279 279 278 278 277 277 276 276 276 276 276 276 276 277 277 278 278 278 278 278 278 277 277 277 276 276 275 275
283 282 282 281 280 280 280 280 280 279 279 279 279 279 278 278 278 277 277 277 276 276 276 275 275 275 276 276 278 278 278 277 277 278 278 277 277 277 276 276 276 276
282 282 281 280 280 280 280 280 279 279 279 279 279 278 278 277 277 276 276 276 276 275 275 275 275 275 275 276 277 277 277 277 278 278 277 277 277 276 276 276 276 276
282 281 280 280 280 280 279 279 279 279 279 278 278 278 278 277 277 276 276 275 275 275 275 275 274 274 275 276 277 277 278 277 278 278 277 276 276 276 276 276 276 276
281 280 280 280 279 279 279 279 279 278 278 278 277 277 277 277 276 276 275 274 274 274 274 274 274 274 275 277 278 278 278 278 278 277 277 276 275 275 275 276 276 277
281 280 280 279 279 279 279 278 278 278 278 277 277 277 276 276 276 275 274 274 273 273 273 273 273 274 275 278 278 279 278 278 277 277 276 276 276 275 275 275 276 277
280 279 279 279 279 279 278 278 278 277 277 276 276 276 276 276 275 274 274 273 273 273 273 273 273 273 276 277 278 278 279 278 277 276 276 276 276 275 275 275 276 276
279 279 278 279 278 278 278 278 277 277 276 275 275 275 275 275 274 274 273 273 272 272 272 273 273 273 276 277 278 278 279 278 276 276 276 275 276 275 275 275 275 275
279 279 278 278 278 277 277 277 276 276 275 275 275 275 275 274 274 273 273 272 272 272 272 272 273 273 275 276 277 278 279 277 276 276 276 276 275 275 275 275 275 275
279 278 278 277 277 277 277 276 276 275 275 275 275 274 274 273 273 272 272 272 272 272 272 272 272 273 275 276 277 278 278 277 276 276 276 276 276 276 276 276 276 275
278 278 277 277 277 277 276 275 275 275 274 274 274 274 274 274 273 273 272 272 272 272 271 271 272 273 274 275 277 278 278 276 276 276 275 275 275 276 276 276 276 275
278 277 277 276 276 276 276 275 275 274 274 274 273 273 273 272 272 272 272 272 271 272 271 271 272 272 273 275 276 277 277 276 275 275 275 275 275 275 276 275 275 274
277 277 276 276 276 275 275 275 274 274 274 273 272 272 272 272 271 271 272 272 271 271 271 270 271 272 273 274 276 277 277 275 275 275 274 274 274 275 275 275 274 274
276 276 276 276 275 275 274 274 273 273 273 273 272 272 272 272 271 271 271 272 272 271 271 270 271 271 272 274 275 276 276 276 275 274 274 274 274 274 274 274 274 274
276 275 275 275 274 273 273 273 273 273 272 272 272 272 271 271 271 271 271 272 272 271 271 271 270 271 271 273 275 276 276 276 275 274 273 273 274 273 272 273 273 273
Wind_Speed
2 2 2 2 3 3 3 3 3 3 3 3 3 4 4 4 5 6 6 6 6 5 6 6 7 7 6 6 6 6 5 5 5 5 6 6 6 7 6 8 8 7
4 3 3 3 4 3 3 4 4 3 3 3 3 3 4 4 5 5 6 6 6 6 6 6 6 6 6 5 5 5 5 5 6 4 6 7 6 6 7 8 7 7
4 5 5 5 4 5 4 4 3 3 3 3 3 4 4 4 5 5 5 6 6 6 6 6 6 6 5 5 5 5 5 6 6 6 7 6 6 7 7 7 6 7
5 5 5 5 5 4 3 3 3 2 3 3 4 4 3 4 5 5 5 5 6 6 5 6 6 5 5 5 5 4 5 5 5 7 7 6 7 6 7 6 7 8
5 5 5 5 4 3 3 3 3 3 4 4 3 4 4 5 5 5 5 5 5 5 5 6 5 5 5 4 5 5 6 5 6 8 7 7 6 6 6 6 8 9
5 5 5 4 3 3 3 4 3 4 4 3 4 4 4 5 4 5 6 6 5 5 6 6 5 5 5 5 5 5 6 6 7 7 8 7 7 7 6 7 8 8
5 5 5 4 4 4 4 3 3 3 3 4 4 4 5 5 5 6 5 5 6 5 6 6 6 6 5 5 5 6 6 7 7 8 8 7 7 8 7 7 8 8
5 4 4 4 4 4 4 3 3 3 4 4 4 4 4 5 5 5 5 6 5 6 6 6 6 6 6 6 6 7 7 6 7 8 8 8 8 8 8 7 7 8
5 4 4 4 4 4 4 3 3 4 4 4 5 4 4 4 5 5 5 6 6 6 6 6 6 6 5 6 6 7 8 8 7 8 8 8 8 9 9 8 8 8
5 4 4 4 4 3 4 4 3 3 4 4 5 4 5 4 4 5 5 5 6 6 6 6 6 6 6 6 7 7 8 9 8 8 8 8 8 9 10 9 9 8
5 4 4 4 4 3 3 3 3 3 3 4 5 5 5 5 5 5 5 6 5 6 6 6 6 6 6 7 7 7 8 9 8 8 8 8 9 10 10 9 8 8
4 4 4 4 3 2 2 2 3 3 4 4 4 5 5 5 5 5 5 6 6 6 6 6 6 6 6 7 8 8 9 9 8 8 8 9 9 9 9 8 7 8
4 4 3 2 2 2 2 2 3 3 4 4 4 5 5 6 6 6 6 5 6 6 6 6 6 5 6 7 8 9 9 9 9 9 9 9 9 9 8 8 8 8
3 3 2 2 1 1 2 2 2 3 3 4 4 5 5 6 6 7 6 5 6 6 6 6 5 5 6 7 9 9 9 9 9 9 9 9 9 9 7 8 8 8
3 2 1 1 1 1 2 2 3 3 3 4 4 5 5 6 6 6 7 6 6 6 6 5 4 4 5 8 9 10 9 9 10 9 9 10 9 8 8 8 8 8
3 2 1 1 1 1 2 2 3 3 3 4 5 5 6 6 6 6 6 6 7 6 6 5 4 3 8 15 12 9 10 9 9 8 9 9 9 8 8 8 9 9
2 2 1 1 1 1 2 3 3 3 4 5 5 6 6 6 6 7 7 6 6 6 6 5 4 4 12 14 14 15 11 10 9 8 8 8 8 9 9 9 9 10
2 2 1 0 1 2 2 3 3 4 4 5 5 6 6 6 7 7 7 6 5 6 6 5 4 7 13 14 14 15 14 10 7 7 7 8 8 9 9 9 10 10
2 2 1 1 1 2 2 2 3 4 5 5 6 6 6 7 7 7 7 6 6 6 6 6 5 8 13 14 14 15 15 12 6 7 7 8 9 9 9 9 9 10
2 1 1 1 1 2 2 3 4 4 4 4 5 5 6 6 7 8 7 6 6 6 6 5 5 8 13 14 15 15 15 11 6 7 7 8 9 9 9 10 10 10
2 1 1 1 1 1 2 3 3 4 3 4 4 5 6 7 7 8 7 7 6 6 6 6 4 10 13 15 15 16 16 10 7 7 7 8 8 9 9 9 10 10
2 2 1 1 1 1 2 3 3 3 4 4 4 4 4 5 5 6 7 7 6 6 6 6 5 9 13 14 16 16 15 8 7 8 7 8 8 9 9 9 9 9
2 1 1 1 1 1 2 2 3 3 3 3 4 4 5 5 6 6 6 6 6 6 6 7 6 8 13 14 15 16 12 8 8 7 7 8 9 9 9 9 8 9
1 1 1 1 1 1 2 2 2 2 2 3 3 5 5 5 6 5 5 5 5 6 6 7 7 8 12 14 15 16 13 8 7 7 8 8 9 9 8 9 9 13
2 1 1 0 1 1 1 2 2 2 2 2 3 3 4 4 5 5 5 4 4 6 7 7 7 8 11 13 15 15 12 9 8 7 8 9 9 9 9 8 9 9
2 2 1 0 1 1 1 1 2 1 2 3 3 3 3 4 5 5 6 5 4 5 5 6 7 7 9 13 14 14 14 10 7 7 8 9 9 9 9 9 9 9
Wind_Direction
100 106 107 97 68 58 56 50 46 42 32 17 7 1 3 360 353 349 350 350 348 342 343 341 341 339 335 328 333 319 322 323 320 325 320 319 317 321 320 324 322 319
96 98 98 93 87 75 66 54 50 37 38 21 10 358 6 355 354 352 350 344 341 344 345 341 337 332 331 329 332 318 322 328 323 329 323 326 324 326 326 330 328 331
98 91 81 79 83 79 74 65 52 42 27 21 12 5 359 355 344 350 345 346 339 340 340 334 329 330 331 328 327 316 327 324 326 335 331 329 331 332 332 332 329 328
81 82 85 82 81 82 72 64 53 38 20 17 15 359 352 342 340 345 344 342 339 333 331 328 329 329 333 328 329 322 329 323 337 336 331 332 333 332 328 326 326 325
91 86 83 83 85 84 75 65 49 33 25 14 359 349 354 350 345 346 343 340 333 328 330 329 332 333 334 335 332 329 334 331 339 341 335 332 334 332 326 323 326 327
84 86 86 87 82 74 67 56 41 28 13 0 359 352 356 346 344 344 340 332 330 331 331 333 338 338 340 338 331 339 335 337 338 336 335 331 328 328 323 319 319 323
100 97 96 93 84 73 66 51 37 20 12 359 350 359 349 347 345 339 332 331 330 335 338 338 342 342 344 338 335 337 337 335 330 335 331 327 325 322 324 319 317 314
101 98 93 87 84 68 57 47 24 23 5 353 349 348 350 343 339 335 331 336 336 339 341 341 341 344 341 337 335 336 333 334 330 329 325 324 324 322 325 323 315 312
106 97 92 86 74 62 51 35 26 8 0 349 345 346 343 340 337 337 337 339 338 340 341 341 341 338 338 336 334 333 330 330 328 328 326 325 325 326 322 320 316 316
99 96 86 74 68 59 42 31 9 355 351 342 344 342 340 340 338 340 338 340 337 339 341 339 339 338 335 338 335 331 330 329 330 327 325 324 323 321 320 318 317 318
98 89 82 70 63 51 40 14 355 349 347 345 345 343 342 342 343 341 339 341 339 338 337 339 339 335 334 338 336 327 327 330 325 324 324 323 321 319 319 318 321 321
95 87 75 69 59 52 28 356 350 349 346 345 347 341 344 344 344 342 340 337 336 337 336 337 337 334 331 337 331 330 330 326 323 321 321 323 322 321 323 326 320 318
89 79 74 68 57 35 360 355 346 349 348 347 342 342 345 346 344 340 338 334 336 336 338 336 335 333 332 333 331 333 329 325 321 320 323 324 322 322 321 318 314 313
87 83 79 66 49 18 357 341 344 345 349 341 342 348 350 345 340 336 334 336 338 335 336 333 330 335 339 335 336 332 329 325 321 321 324 323 322 323 322 322 316 313
105 91 88 90 37 6 338 343 345 344 344 346 350 350 343 338 333 333 333 336 339 338 336 333 332 341 347 335 337 333 330 325 324 325 326 324 322 322 323 321 317 314
114 118 101 73 28 343 348 344 345 345 348 352 353 347 338 337 333 336 338 338 337 337 338 337 338 342 336 333 339 334 331 326 327 325 328 325 321 321 320 320 319 317
130 109 99 60 360 334 347 356 349 347 352 354 349 342 336 339 338 341 343 339 337 337 336 339 335 342 336 336 339 339 334 329 328 325 325 322 323 324 324 322 319 318
122 120 107 68 349 359 358 352 345 352 355 351 343 341 340 338 343 343 340 342 337 335 332 333 328 340 336 340 340 340 336 339 333 327 324 322 323 323 322 321 321 320
130 122 111 50 19 359 355 342 350 355 353 348 342 336 335 343 344 342 342 343 339 334 331 331 329 340 338 341 342 339 340 347 330 328 325 321 322 323 323 323 323 320
133 133 119 60 18 357 349 352 356 354 347 338 329 334 342 343 344 344 343 340 338 333 328 329 330 338 339 341 342 340 344 349 327 329 323 324 327 326 325 323 323 322
145 162 137 92 26 3 352 357 350 343 343 341 333 340 346 349 344 342 339 334 336 336 330 329 331 337 340 341 343 343 347 346 331 328 324 325 322 321 321 322 323 322
175 169 146 110 32 358 351 347 339 344 338 342 328 340 348 345 340 336 331 331 335 334 334 329 331 340 340 341 344 345 349 342 334 330 328 324 323 325 324 323 324 325
179 158 116 63 14 339 340 337 338 338 343 346 334 349 349 352 343 331 327 326 331 334 338 330 324 340 339 340 343 346 350 341 335 328 327 327 327 327 325 324 323 325
134 102 101 55 332 333 331 325 325 326 347 342 347 349 350 349 339 325 326 324 328 333 342 326 327 336 337 339 343 347 350 343 335 331 329 328 326 326 326 321 318 317
128 124 113 120 274 319 321 314 325 336 340 334 355 345 342 333 333 321 321 318 325 327 330 326 327 332 336 339 343 348 350 344 338 333 331 329 328 326 326 321 317 318
133 136 123 170 277 279 269 311 315 311 351 351 352 350 340 335 330 320 316 317 323 321 326 332 334 333 332 336 342 345 348 344 339 340 335 330 330 328 324 321 320 319